map of GYR home
GYR - Airport
Location
City:  Goodyear, Arizona, United States
Name:Phoenix Goodyear Airport
ICAO:KGYR
IATA:GYR
FAA LID:GYR

Details
Type:Airport (Airfield)
Use:Public/Civil
Latitude:3325'24"N (33.423278)
Longitude:11222'31"W (-112.375360)
Datum:WGS 1984
Elevation:969 ft (295 m)
Variation:10.31E (WMM2015v2 magnetic declination)
-0.09 annual change
Runways:1
Longest:8500 × 150 ft (2591 × 45.5 m), paved

Time
Time Zone:UTC-7
Local Time:

Weather
METAR:KGYR 041347Z 06005KT 10SM SCT050 BKN070 13/12 A2985

Related Locations
Nearby:
Farthest:RRG: 11454 mi / 18434 km
Plaine Corail [Sir Gatan Duval Airport (Plaine Corail Airport)], Rodrigues Island, MU

Find:

   beyond  
but within

Other Information
Maps:
NOTAMs:
Links:
Sources:

  
  • flag of United States
  • flag of Arizona
  

Airport Diagram

Airport diagram for GYR

Airport diagram PDF from FAA

Sectional Chart

Flight Planning
at skyvector.com

Satellite Image

Google Maps Satellite view

 

Copyright © 2004-2019 Karl L. Swartz. All rights reserved.
The Great Circle Mapper name and logo are trademarks of the Great Circle Mapper.
All other trademarks mentioned herein belong to their respective owners.
Please see credits for attibutions and further copyright information.

  Follow gcmap on Facebook Follow gcmap on Twitter GCmap on LinkedIn

hCard Microformat

Geo Microformat